TimeCDT,TemperatureF,Dew PointF,Humidity,Sea Level PressureIn,VisibilityMPH,Wind Direction,Wind SpeedMPH,Gust SpeedMPH,PrecipitationIn,Events,Conditions,WindDirDegrees,DateUTC
12:58 AM,47.8,40.8,77,30.22,10.0,NNE,6.9,-,N/A,,Clear,20,2013-05-23 05:58:00
1:58 AM,45.9,41.7,85,30.25,10.0,NNE,6.9,-,N/A,,Clear,20,2013-05-23 06:58:00
2:58 AM,47.8,40.8,77,30.25,10.0,NE,8.1,-,N/A,,Clear,50,2013-05-23 07:58:00
3:58 AM,45.3,40.6,84,30.27,10.0,NE,8.1,-,N/A,,Clear,40,2013-05-23 08:58:00
4:58 AM,45.1,39.6,81,30.29,10.0,ENE,8.1,-,N/A,,Clear,60,2013-05-23 09:58:00
5:58 AM,43.7,38.3,81,30.32,10.0,ENE,5.8,-,N/A,,Clear,60,2013-05-23 10:58:00
6:58 AM,46.2,38.1,73,30.33,10.0,East,8.1,-,N/A,,Clear,100,2013-05-23 11:58:00
7:58 AM,48.9,36.7,63,30.34,10.0,ESE,12.7,-,N/A,,Clear,120,2013-05-23 12:58:00
8:58 AM,51.6,36.3,56,30.36,10.0,East,8.1,-,N/A,,Clear,90,2013-05-23 13:58:00
9:58 AM,54.1,36.5,51,30.38,10.0,ENE,5.8,-,N/A,,Clear,60,2013-05-23 14:58:00
10:58 AM,55.9,36.9,49,30.37,10.0,Variable,3.5,-,N/A,,Clear,0,2013-05-23 15:58:00
11:58 AM,59.0,33.6,38,30.38,10.0,ENE,11.5,-,N/A,,Clear,60,2013-05-23 16:58:00
12:58 PM,60.1,33.6,37,30.37,10.0,NE,10.4,16.1,N/A,,Clear,50,2013-05-23 17:58:00
1:58 PM,61.3,32.2,33,30.36,10.0,East,11.5,-,N/A,,Clear,90,2013-05-23 18:58:00
2:17 PM,60.8,32.0,34,30.32,10.0,SE,11.5,17.3,N/A,,Clear,130,2013-05-23 19:17:00
2:58 PM,62.1,30.2,30,30.35,10.0,East,6.9,-,N/A,,Clear,80,2013-05-23 19:58:00
3:58 PM,63.7,29.7,28,30.34,10.0,East,5.8,-,N/A,,Clear,100,2013-05-23 20:58:00
4:58 PM,65.1,28.6,25,30.32,10.0,East,8.1,-,N/A,,Clear,90,2013-05-23 21:58:00
5:58 PM,65.5,28.8,25,30.31,10.0,SSE,4.6,-,N/A,,Clear,150,2013-05-23 22:58:00
6:58 PM,64.9,28.6,25,30.30,10.0,SE,10.4,-,N/A,,Clear,140,2013-05-23 23:58:00
7:58 PM,63.9,29.7,28,30.29,10.0,SE,6.9,-,N/A,,Clear,140,2013-05-24 00:58:00
8:58 PM,58.6,33.8,39,30.29,10.0,SE,5.8,-,N/A,,Clear,140,2013-05-24 01:58:00
9:58 PM,56.3,29.1,35,30.30,10.0,ESE,5.8,-,N/A,,Clear,120,2013-05-24 02:58:00
10:58 PM,54.5,28.4,37,30.30,10.0,SE,6.9,-,N/A,,Clear,130,2013-05-24 03:58:00
11:58 PM,50.2,30.7,47,30.31,10.0,SE,6.9,-,N/A,,Clear,130,2013-05-24 04:58:00